Tracking 19827 objects as of 22-Aug-2019
HD Live streaming from Space Station
objects crossing your sky now

FLOCK 3R 13

Track FLOCK 3R 13 now!
10-day predictions
FLOCK 3R 13 is classified as:


NORAD ID: 43750
Int'l Code: 2018-096AH
Perigee: 472.8 km
Apogee: 504.8 km
Inclination: 97.5 °
Period: 94.2 minutes
Semi major axis: 6859 km
RCS: Unknown
Launch date: November 29, 2018
Source: United States (US)
Launch site: SRIHARIKOTA (SRI)
aabbcc
Your satellite tracking list
Your tracking list is empty




NASA's NSSDC Master Catalog

Two Line Element Set (TLE):
1 43750U 18096AH  19233.73854511 +.00001631 +00000-0 +61956-4 0  9997
2 43750 097.4562 304.0643 0023292 111.2013 249.1718 15.28048618040549
Source of the keplerian elements: AFSPC